Location: Toronto
(43.6672°N, 79.4170°W)
Time: 14:05:05
(UTC-04:00)

ISS - All Passes

Search period start: 05 May 2016 00:00
Search period end: 15 May 2016 00:00
Orbit: 402 x 405 km, 51.6° (Epoch: 05 May)

Date Brightness Start Highest point End Pass type
(mag) Time Alt. Az. Time Alt. Az. Time Alt. Az.
05 May - 07:09:45 10° SW 07:12:55 49° SE 07:16:06 10° ENE daylight
05 May - 08:46:31 10° W 08:49:29 31° NNW 08:52:28 10° NE daylight
05 May - 10:24:09 10° NW 10:26:38 20° N 10:29:07 10° NE daylight
05 May - 12:00:45 10° NW 12:03:46 33° NNE 12:06:47 10° E daylight
05 May - 13:37:10 10° WNW 13:40:18 44° SW 13:43:25 10° SE daylight
06 May - 06:17:42 10° SSW 06:20:30 26° SE 06:23:19 10° ENE daylight
06 May - 07:53:41 10° W 07:56:50 45° NNW 08:00:00 10° NE daylight
06 May - 09:31:20 10° WNW 09:33:51 20° N 09:36:24 10° NE daylight
06 May - 11:08:16 10° NW 11:11:04 25° NNE 11:13:52 10° ENE daylight
06 May - 12:44:33 10° WNW 12:47:50 82° SW 12:51:05 10° SE daylight
06 May - 14:22:57 10° WSW 14:23:47 11° SW 14:24:38 10° SW daylight
07 May - 05:26:15 10° SSE 05:28:10 15° SE 05:30:05 10° E visible
07 May - 07:00:59 10° WSW 07:04:14 75° NNW 07:07:31 10° NE daylight
07 May - 08:38:24 10° WNW 08:41:06 23° NNW 08:43:48 10° NE daylight
07 May - 10:15:43 10° NW 10:18:20 21° N 10:20:56 10° ENE daylight
07 May - 11:52:02 10° NW 11:55:16 57° NNE 11:58:30 10° ESE daylight
07 May - 13:29:01 10° W 13:31:29 20° SW 13:33:56 10° S daylight
08 May - 06:08:30 10° SW 06:11:43 61° SE 06:14:57 10° ENE daylight
08 May - 07:45:28 10° W 07:48:22 29° NNW 07:51:17 10° NE daylight
08 May - 09:23:03 10° NW 09:25:33 20° N 09:28:03 10° NE daylight
08 May - 10:59:34 10° NW 11:02:38 37° NNE 11:05:43 10° E daylight
08 May - 12:36:03 10° WNW 12:39:06 36° SW 12:42:07 10° SSE daylight
09 May - 05:16:18 10° SSW 05:19:16 32° SE 05:22:14 10° ENE visible
09 May - 06:52:34 10° W 06:55:41 40° NNW 06:58:47 10° NE daylight
09 May - 08:30:14 10° NW 08:32:45 20° N 08:35:15 10° NE daylight
09 May - 10:07:04 10° NW 10:09:56 27° NNE 10:12:48 10° ENE daylight
09 May - 11:43:22 10° WNW 11:46:37 68° SW 11:49:51 10° SE daylight
10 May - 04:24:35 10° S 04:26:52 18° SE 04:29:10 10° E visible
10 May - 05:59:48 10° WSW 06:03:02 63° NNW 06:06:17 10° NE daylight
10 May - 07:37:19 10° WNW 07:39:57 22° N 07:42:35 10° NE daylight
10 May - 09:14:30 10° NW 09:17:11 22° N 09:19:50 10° ENE daylight
10 May - 10:50:48 10° NW 10:54:04 68° NNE 10:57:19 10° ESE daylight
10 May - 12:28:03 10° W 12:30:11 16° SW 12:32:19 10° S daylight
11 May - 05:07:12 10° SW 05:10:28 74° SE 05:13:43 10° ENE visible
11 May - 06:44:21 10° WNW 06:47:10 26° NNW 06:50:01 10° NE daylight
11 May - 08:21:51 10° NW 08:24:23 20° N 08:26:54 10° NE daylight
11 May - 09:58:17 10° NW 10:01:25 42° NNE 10:04:33 10° E daylight
11 May - 11:34:54 10° WNW 11:37:48 29° SW 11:40:41 10° SSE daylight
12 May - 04:14:53 10° SSW 04:17:57 39° SE 04:21:02 10° ENE visible
12 May - 05:51:24 10° W 05:54:27 35° NNW 05:57:30 10° NE daylight
12 May - 07:29:03 10° NW 07:31:33 20° N 07:34:02 10° NE daylight
12 May - 09:05:47 10° NW 09:08:43 30° NNE 09:11:39 10° E daylight
12 May - 10:42:07 10° WNW 10:45:20 55° SW 10:48:31 10° SE daylight
13 May - 03:22:57 10° S 03:25:31 21° SE 03:28:06 10° E visible
13 May - 04:58:32 10° WSW 05:01:45 54° NNW 05:04:59 10° NE visible
13 May - 06:36:08 10° WNW 06:38:43 21° N 06:41:18 10° NE daylight
13 May - 08:13:13 10° NW 08:15:57 24° NNE 08:18:40 10° ENE daylight
13 May - 09:49:29 10° WNW 09:52:46 81° NNE 09:56:01 10° ESE daylight
13 May - 11:27:06 10° W 11:28:48 14° SW 11:30:30 10° SSW daylight
14 May - 02:31:53 10° SSE 02:33:09 12° SE 02:34:25 10° ESE visible
14 May - 04:05:52 10° WSW 04:09:07 89° SSE 04:12:25 10° ENE visible
14 May - 05:43:08 10° WNW 05:45:54 25° NNW 05:48:41 10° NE daylight
14 May - 07:20:34 10° NW 07:23:07 21° N 07:25:40 10° ENE daylight
14 May - 08:56:56 10° NW 09:00:08 48° NNE 09:03:18 10° ESE daylight
14 May - 10:33:42 10° W 10:36:25 24° SW 10:39:08 10° SSE daylight
